Weather History for North Wilkesboro, NC

Change the Weather History Date:

Tuesday, June 4, 2013

  Actual Average Record
Temperature  
Mean Temperature 66 °F -  
Max Temperature 73 °F 80 °F 93 °F (2002)
Min Temperature 60 °F 56 °F 42 °F (1956)
Cooling Degree Days 2    
Growing Degree Days 16 (Base 50)    
Moisture  
Dew Point 60 °F    
Average Humidity 83    
Maximum Humidity 100    
Minimum Humidity 57    
Precipitation  
Precipitation 0.00 in - - ()
Sea Level Pressure  
Sea Level Pressure 30.13 in    
Wind  
Wind Speed 2 mph (NE)    
Max Wind Speed 7 mph    
Max Gust Speed -    
Visibility 10 miles    
Events Rain    
Averages and records for this station are not official NWS values.
T = Trace of Precipitation, MM = Missing Value Source: NWS Daily Summary

Daily Weather History Graph

Daily Weather History Graph

Search for Another Location

Airport:

Trip Planner

Search our weather history database for the weather conditions in past years. The results will help you decide how hot, cold, wet, or windy it might be!

Date:

Astronomy

Jun. 04, 2013 Rise Set
Actual Time 6:07 AM EDT 8:38 PM EDT
Civil Twilight 5:37 AM EDT 9:08 PM EDT
Nautical Twilight 5:00 AM EDT 9:45 PM EDT
Astronomical Twilight 4:19 AM EDT 10:26 PM EDT
Moon 3:30 AM EDT (6/4) 5:11 PM EDT (6/4)
Length of Visible Light 15h 30m
Length of Day
14h 30m
Waning Crescent, 14% of the Moon is Illuminated
Jun 4
Waning Crescent
Jun 8
New
Jun 16
First Quarter
Jun 23
Full
Jun 30
Last Quarter

Hourly Weather History & Observations

Time (EDT) Temp. Dew Point Humidity Pressure Visibility Wind Dir Wind Speed Gust Speed Precip Events Conditions
12:15 AM 64.4 °F 60.8 °F 88% 30.06 in 10.0 mi North 3.5 mph - N/A   Scattered Clouds
12:35 AM 62.6 °F 60.8 °F 94% 30.06 in 10.0 mi North 5.8 mph - N/A   Scattered Clouds
12:55 AM 62.6 °F 60.8 °F 94% 30.06 in 10.0 mi NNE 3.5 mph - N/A   Clear
1:15 AM 62.6 °F 60.8 °F 94% 30.07 in 10.0 mi Calm Calm - N/A   Clear
1:35 AM 62.6 °F 60.8 °F 94% 30.07 in 10.0 mi Calm Calm - N/A   Mostly Cloudy
1:55 AM 62.6 °F 60.8 °F 94% 30.06 in 10.0 mi NNE 3.5 mph - N/A   Overcast
2:15 AM 62.6 °F 59.0 °F 88% 30.06 in 10.0 mi North 4.6 mph - N/A   Scattered Clouds
2:35 AM 62.6 °F 59.0 °F 88% 30.06 in 10.0 mi NNE 4.6 mph - N/A   Scattered Clouds
2:55 AM 60.8 °F 59.0 °F 94% 30.06 in 10.0 mi Calm Calm - N/A   Mostly Cloudy
3:35 AM 60.8 °F 59.0 °F 94% 30.05 in 7.0 mi Calm Calm - N/A   Mostly Cloudy
3:55 AM 60.8 °F 60.8 °F 100% 30.05 in 10.0 mi Calm Calm - N/A   Overcast
4:15 AM 60.8 °F 60.8 °F 100% 30.05 in 10.0 mi Calm Calm - N/A   Overcast
4:35 AM 60.8 °F 60.8 °F 100% 30.06 in 10.0 mi Calm Calm - N/A   Overcast
4:55 AM 60.8 °F 60.8 °F 100% 30.06 in 10.0 mi Calm Calm - N/A   Overcast
5:55 AM 62.6 °F 59.0 °F 88% 30.07 in 10.0 mi Calm Calm - N/A   Overcast
6:15 AM 62.6 °F 59.0 °F 88% 30.07 in 10.0 mi North 4.6 mph - N/A   Overcast
7:15 AM 62.6 °F 60.8 °F 94% 30.10 in 10.0 mi Calm Calm - N/A   Overcast
7:35 AM 62.6 °F 60.8 °F 94% 30.10 in 10.0 mi Calm Calm - N/A   Overcast
7:55 AM 62.6 °F 60.8 °F 94% 30.11 in 10.0 mi Calm Calm - N/A   Overcast
8:15 AM 62.6 °F 60.8 °F 94% 30.12 in 10.0 mi Calm Calm - N/A   Overcast
8:35 AM 62.6 °F 60.8 °F 94% 30.13 in 10.0 mi Calm Calm - N/A   Overcast
8:55 AM 62.6 °F 62.6 °F 100% 30.14 in 10.0 mi Calm Calm - N/A   Overcast
9:15 AM 62.6 °F 62.6 °F 100% 30.15 in 10.0 mi Calm Calm - N/A   Overcast
9:35 AM 64.4 °F 62.6 °F 94% 30.15 in 10.0 mi Calm Calm - N/A   Overcast
9:55 AM 66.2 °F 60.8 °F 83% 30.15 in 10.0 mi SSE 3.5 mph - N/A   Overcast
10:15 AM 66.2 °F 60.8 °F 83% 30.15 in 10.0 mi Calm Calm - N/A   Overcast
10:35 AM 66.2 °F 59.0 °F 78% 30.16 in 10.0 mi Calm Calm - N/A   Overcast
10:55 AM 66.2 °F 59.0 °F 78% 30.16 in 10.0 mi Calm Calm - N/A   Overcast
11:15 AM 66.2 °F 60.8 °F 83% 30.17 in 10.0 mi Calm Calm - N/A   Overcast
11:35 AM 66.2 °F 60.8 °F 83% 30.17 in 10.0 mi ENE 3.5 mph - N/A Rain Light Rain
11:55 AM 64.4 °F 59.0 °F 83% 30.17 in 10.0 mi East 6.9 mph - N/A   Overcast
12:15 PM 62.6 °F 59.0 °F 88% 30.17 in 7.0 mi Calm Calm - N/A   Light Drizzle
12:35 PM 64.4 °F 59.0 °F 83% 30.17 in 10.0 mi Calm Calm - N/A   Overcast
12:55 PM 66.2 °F 59.0 °F 78% 30.17 in 10.0 mi East 4.6 mph - N/A   Overcast
1:15 PM 68.0 °F 60.8 °F 78% 30.17 in 10.0 mi East 3.5 mph - N/A   Overcast
1:35 PM 68.0 °F 60.8 °F 78% 30.17 in 10.0 mi Calm Calm - N/A   Overcast
1:55 PM 68.0 °F 60.8 °F 78% 30.17 in 10.0 mi Calm Calm - N/A   Overcast
2:15 PM 68.0 °F 60.8 °F 78% 30.16 in 10.0 mi Calm Calm - N/A   Overcast
2:55 PM 69.8 °F 60.8 °F 73% 30.16 in 10.0 mi Calm Calm - N/A   Overcast
3:15 PM 69.8 °F 59.0 °F 68% 30.16 in 10.0 mi Calm Calm - N/A   Overcast
3:35 PM 69.8 °F 59.0 °F 68% 30.15 in 10.0 mi Calm Calm - N/A   Overcast
3:55 PM 71.6 °F 60.8 °F 69% 30.14 in 10.0 mi SSE 3.5 mph - N/A   Overcast
4:15 PM 71.6 °F 59.0 °F 64% 30.14 in 10.0 mi ENE 4.6 mph - N/A   Scattered Clouds
4:35 PM 73.4 °F 57.2 °F 57% 30.14 in 10.0 mi ENE 4.6 mph - N/A   Clear
4:55 PM 73.4 °F 59.0 °F 61% 30.14 in 10.0 mi SE 5.8 mph - N/A   Clear
5:15 PM 73.4 °F 59.0 °F 61% 30.13 in 10.0 mi East 5.8 mph - N/A   Scattered Clouds
5:35 PM 73.4 °F 57.2 °F 57% 30.13 in 10.0 mi East 6.9 mph - N/A   Scattered Clouds
5:55 PM 73.4 °F 59.0 °F 61% 30.12 in 10.0 mi East 3.5 mph - N/A   Clear
6:15 PM 73.4 °F 59.0 °F 61% 30.12 in 10.0 mi East 4.6 mph - N/A   Clear
6:35 PM 71.6 °F 59.0 °F 64% 30.12 in 10.0 mi ENE 3.5 mph - N/A   Clear
6:55 PM 71.6 °F 59.0 °F 64% 30.12 in 10.0 mi ENE 3.5 mph - N/A   Clear
7:15 PM 71.6 °F 59.0 °F 64% 30.13 in 10.0 mi East 3.5 mph - N/A   Clear
7:35 PM 71.6 °F 60.8 °F 69% 30.13 in 10.0 mi Calm Calm - N/A   Clear
7:55 PM 71.6 °F 60.8 °F 69% 30.14 in 10.0 mi Calm Calm - N/A   Clear
8:15 PM 69.8 °F 60.8 °F 73% 30.14 in 10.0 mi Calm Calm - N/A   Clear
8:35 PM 69.8 °F 59.0 °F 68% 30.15 in 10.0 mi East 3.5 mph - N/A   Clear
8:55 PM 66.2 °F 59.0 °F 78% 30.15 in 10.0 mi Calm Calm - N/A   Clear
9:15 PM 64.4 °F 59.0 °F 83% 30.15 in 10.0 mi NNE 3.5 mph - N/A   Clear
9:35 PM 62.6 °F 59.0 °F 88% 30.16 in 10.0 mi Calm Calm - N/A   Clear
9:55 PM 62.6 °F 59.0 °F 88% 30.16 in 10.0 mi NNE 4.6 mph - N/A   Clear
10:15 PM 62.6 °F 59.0 °F 88% 30.17 in 10.0 mi NNE 4.6 mph - N/A   Clear
10:35 PM 60.8 °F 59.0 °F 94% 30.18 in 10.0 mi North 5.8 mph - N/A   Clear
10:55 PM 60.8 °F 59.0 °F 94% 30.18 in 10.0 mi North 3.5 mph - N/A   Clear
11:15 PM 60.8 °F 59.0 °F 94% 30.18 in 10.0 mi North 4.6 mph - N/A   Clear
11:35 PM 60.8 °F 59.0 °F 94% 30.19 in 10.0 mi North 3.5 mph - N/A   Scattered Clouds
11:55 PM 60.8 °F 59.0 °F 94% 30.18 in 10.0 mi North 4.6 mph - N/A   Overcast